Regional Weather Roundup
Issued by NWS Charleston, SC

Current Version | Previous Version | Graphics & Text | Print | Product List | Glossary On
Versions: 1 2 3 4 5 6 7 8 9 10 11 12 13 14 15 16 17 18 19 20 21 22 23 24 25 26 27 28 29 30 31 32 33 34 35 36 37 38 39 40 41 42 43 44 45 46 47 48 49 50
000
ASUS42 KCHS 052226
RWRCHS

REGIONAL WEATHER ROUNDUP
NATIONAL WEATHER SERVICE CHARLESTON SC
500 PM EST THU MAR 05 2015

NOTE: "FAIR" INDICATES FEW OR NO CLOUDS BELOW 12,000 FEET WITH NO
SIGNIFICANT WEATHER AND/OR OBSTRUCTIONS TO VISIBILITY.

NOT ALL STATIONS ARE QUALITY CONTROLLED BY THE NATIONAL
WEATHER SERVICE. USE DATA WITH CAUTION...ESPECIALLY
DEWPOINT OBSERVATIONS.

SCZ027-030-031-034>040-042>050-052300-
...SOUTHEAST SOUTH CAROLINA...

CITY           SKY/WX    TMP DP  RH WIND       PRES   REMARKS
N CHARLESTON   PTSUNNY   75  62  64 S13G22    29.93S
WATERFRONT PRK   N/A     66 N/A N/A SW16G22     N/A
MOUNT PLEASANT FAIR      72  63  73 SW12      29.95R
PINOPOLIS        N/A     75  61  60 W13       29.85
MONCKS CORNER  CLOUDY    70  61  73 N3        29.95R
SUMMERVILLE    CLOUDY    70  63  78 W8        29.97R
BEAUFORT MCAS  LGT RAIN  68  63  84 W12G21    29.99R
BEAUFORT ARPT  CLOUDY    70  63  78 W13G23    29.98R
HILTON HEAD IS SUNNY     72  61  68 S7        29.96S
WALTERBORO     CLOUDY    70  63  78 W10G18    29.98R
ALLENDALE      LGT RAIN  64  63  94 VRB6      29.99R

...SOUTHERN MIDLANDS AND PEE DEE...

CITY           SKY/WX    TMP DP  RH WIND       PRES   REMARKS
GEORGETOWN     NOT AVBL
KINGSTREE      NOT AVBL
ORANGEBURG     LGT RAIN  64  60  87 S12       29.93F
BARNWELL       RAIN      63  63 100 W6        30.00R
AIKEN          CLOUDY    59  55  88 SW7       30.02R
MANNING        LGT RAIN  66  66 100 CALM      29.96R
COLUMBIA       CLOUDY    64  60  87 N3        29.95R
SUMTER         CLOUDY    54  52  94 N16       29.96R
FLORENCE       LGT RAIN  46  43  89 NE15      29.98F FOG
MYRTLE BEACH   PTSUNNY   68  59  73 N26G35    29.97R
N MYRTLE BEACH LGT RAIN  49  45  86 NE16G24   30.00R

$$

GAZ063-065-086>088-099>101-113>116-118-119-134>141-150-052300-
...SOUTHEAST GEORGIA...

CITY           SKY/WX    TMP DP  RH WIND       PRES   REMARKS
SAVANNAH ARPT  LGT RAIN  66  63  88 NW20G40   30.00R FOG
HUNTER AAF     LGT RAIN  77  64  65 NW25G38   29.97R
FORT STEWART   LGT RAIN  72  63  73 NW20G32   29.97R
STATESBORO     HVY RAIN  62  62 100 W5        30.00F
SYLVANIA       HVY RAIN  62  62 100 W7G17     30.02R
CLAXTON        HVY RAIN  63  63 100 NW8       30.02R

...CSRA...CENTRAL AND FAR SOUTHEAST GEORGIA...

CITY           SKY/WX    TMP DP  RH WIND       PRES   REMARKS
THOMSON        CLOUDY    61  55  81 W9        30.07R
AUGUSTA-BUSH   LGT RAIN  61  59  93 SW7       29.99R
AUGUSTA-DANIEL CLOUDY    63  57  81 VRB3      30.00R
SWAINSBORO     LGT RAIN  61  61 100 W6        30.02R
VIDALIA        HVY RAIN  61  61 100 CALM      30.02S
EASTMAN        RAIN      60  60 100 NW6       30.06R
HAZLEHURST     RAIN      63  63 100 SW3       30.03R
ALMA           RAIN      64  62  93 NW9       30.03R FOG
WAYCROSS       LGT RAIN  72  68  87 NW20G35   30.02R
JESUP          CLOUDY    77  64  65 NW22G32   30.01R
BAXLEY         HVY RAIN  64  63  94 NW6       30.03R
BRUNSWICK      MOSUNNY   82  59  44 SW16G23   29.99R
SAINT SIMONS   MOSUNNY   81  60  48 SW12      29.97F

$$

SCZ027-028-034-036>038-045-046-048>050-GAZ119-141-052300-
...LAKE AND SUPPLEMENTAL COASTAL OBSERVATIONS...

STATION/POSITION TIME  TEMP    WIND        PRES    WAVE   SWELL
                       AIR SEA DIR/SP/G            HT/PER HT/PER/DIR
                 (UTC) (F)     (DEG/KT/KT) (MB)    (FT/S) (FT/S/D)
UPR LAKE MARION  NOT AVBL
WINYAH BAY       2100   73     210/ 17     1012.0S
LAKE MURRAY      2200   55      30/  4/  7 1014.6R
ACE BASIN NERRS  NOT AVBL
FORT PULASKI     2200   66 54  190/  6/ 11 1014.9R
SAPELO ISLAND    2200   78     200/ 11     1014.0S

$$

ANZ835-935-AMZ111-154-330-350-352-354-370-450-454-472-052300-
...C-MAN AND BUOY OBSERVATIONS...

STATION/POSITION TIME  TEMP    WIND        PRES    WAVE   SWELL
                       AIR SEA DIR/SP/G            HT/PER HT/PER/DIR
                 (UTC) (F)     (DEG/KT/KT) (MB)    (FT/S) (FT/S/D)
BUOY 41004       2150   70 68  200/ 21/ 23 1013.7F   7/ 6   2/10
BUOY 41008       2150   60 56  170/ 14/ 16 1014.8F   3/11   2/ 80/11
FOLLY BEACH CMAN 2200   58     210/ 16/ 17 1014.6S
CAPERS NEARSHORE NOT AVBL
FRIPP NEARSHORE  2100   58     200/ 14/ 16 1014.2F


STATION/POSITION TIME  TEMP    WIND        PRES    WAVE   SWELL
                       AIR SEA DIR/SP/G            HT/PER HT/PER/DIR
                 (UTC) (F)     (DEG/KT/KT) (MB)    (FT/S) (FT/S/D)
5E ST. MARYS GA  2121      56                N/A     3/ 9   2/110/12
FRYING PAN BUOY  2150   68 65  200/ 23/ 27 1013.5F   7/ 7   2/140/11
BUOY 41025       NOT AVBL
CAPE LOOKOUT NC  2200          360/ 20/ 23 1016.0R
BUOY 41002       2150   74 73  220/ 19/ 25 1017.9S   7/ 7   3/120/10
BUOY 41010       2120   75 75  180/ 14/ 16 1019.1F
ST AUGUSTINE FL  2200   83     250/ 10/ 13 1017.3R


$$



USA.gov is the U.S. government's official web portal to all federal, state and local government web resources and services.